Weather observations for the past three days for
Crescent City, Jack McNamara Field Airport
Imperial (Metric)
Date Time (pdt) Wind (mph) Vis. (mi.) Weather Sky Cond. Temperature (ºF) Relative Humidity Wind Chill (°F) Heat Index (°F) Pressure Precipitation (in)
Air Dwpt 6 hour altimeter (in) sea level (mb) 1 hr 3 hr 6 hr
Max. Min.
25 11:56 S 12 10.00 Partly Cloudy SCT006 59 54 83% 30.16 1021.3
25 10:56 S 7 10.00 Overcast OVC005 57.9 54 57.9 53.1 87% 30.16 1021.4
25 09:56 W 7 7.00 Overcast OVC003 54 54 100% 30.16 1021.2
25 08:56 Calm 3.00 Fog/Mist OVC002 54 54 100% 30.15 1021.0
25 07:56 SW 3 2.00 Fog/Mist OVC003 53.1 53.1 100% 30.14 1020.9
25 06:56 S 5 1.00 Fog/Mist OVC002 53.1 53.1 100% 30.14 1020.6
25 05:56 Calm 4.00 Fog/Mist OVC002 53.1 53.1 100% 30.13 1020.4
25 04:56 SW 3 2.00 Fog/Mist OVC003 53.1 53.1 54 53.1 100% 30.13 1020.4
25 03:56 SW 3 4.00 Fog/Mist OVC002 54 54 100% 30.13 1020.3
25 02:56 SW 6 5.00 Fog/Mist OVC003 54 54 100% 30.13 1020.3
25 01:56 S 9 5.00 Fog/Mist OVC002 54 54 100% 30.13 1020.2
25 00:56 S 12 5.00 Fog/Mist OVC002 54 54 100% 30.13 1020.3
24 23:56 S 9 10.00 Overcast OVC004 54 54 100% 30.13 1020.3
24 22:56 S 8 10.00 Fair CLR 54 53.1 60.1 53.1 97% 30.13 1020.3
24 21:56 S 7 10.00 Fair CLR 54 53.1 97% 30.12 1020.1
24 20:56 NW 7 9.00 A Few Clouds FEW005 54 53.1 97% 30.11 1019.7
24 19:56 NW 10 10.00 Fair CLR 55.9 54 93% 30.11 1019.6
24 18:56 NW 10 10.00 A Few Clouds FEW006 57 54 90% 30.11 1019.8
24 17:56 NW 10 10.00 Fair CLR 59 54 83% 30.11 1019.7
24 16:56 NW 10 10.00 Fair CLR 60.1 54 63 59 80% 30.12 1019.9
24 15:56 NW 10 10.00 Fair CLR 60.1 54 80% 30.13 1020.2
24 14:56 NW 12 10.00 Fair CLR 61 54 78% 30.13 1020.3
24 13:56 NW 8 10.00 Fair CLR 63 53.1 70% 30.12 1020.1
24 12:56 S 6 10.00 Fair CLR 61 54 78% 30.11 1019.6
24 11:56 S 9 10.00 Fair CLR 61 54 78% 30.09 1018.9
24 10:56 S 10 10.00 Fair CLR 60.1 54 60.1 51.1 80% 30.08 1018.5
24 09:56 S 9 9.00 Mostly Cloudy BKN013 57 53.1 87% 30.07 1018.4
24 08:56 S 7 9.00 Fair CLR 57.9 54 87% 30.07 1018.1
24 07:56 S 6 8.00 A Few Clouds FEW012 55 54 96% 30.05 1017.7
24 06:56 S 3 7.00 Mostly Cloudy BKN012 53.1 53.1 100% 30.04 1017.3
24 05:56 S 3 9.00 A Few Clouds FEW012 52 51.1 97% 30.03 1017.0
24 04:56 S 6 9.00 Mostly Cloudy BKN013 53.1 52 57.9 52 96% 30.02 1016.7
24 03:56 S 5 10.00 Fair CLR 52 50 93% 30.02 1016.5
24 02:56 SW 3 10.00 Partly Cloudy SCT021 53.1 51.1 93% 30.01 1016.4
24 01:56 NW 5 5.00 Fog/Mist OVC025 52 52 100% 30.02 1016.6
24 00:56 NE 5 7.00 Overcast OVC028 54 52 93% 30.02 1016.5
23 23:56 Calm 10.00 Overcast OVC037 57 53.1 87% 30.01 1016.3
23 22:56 S 3 9.00 Mostly Cloudy BKN041 55.9 53.1 62.1 55 90% 30 1015.9
23 21:56 S 7 10.00 Mostly Cloudy BKN040 55.9 53.1 90% 29.99 1015.5
23 20:56 S 9 10.00 Partly Cloudy SCT040 57.9 52 81% 29.97 1014.9
23 19:56 S 5 9.00 Partly Cloudy SCT025 59 53.1 81% 29.95 1014.4
23 18:56 W 3 7.00 Partly Cloudy SCT039 59 53.1 81% 29.94 1014.0
23 17:56 NW 5 7.00 Partly Cloudy SCT041 60.1 53.1 78% 29.94 1013.9
23 16:56 NW 8 8.00 Partly Cloudy SCT040 62.1 54 64 59 75% 29.94 1014.0
23 15:56 SW 8 10.00 Fair CLR 64 53.1 68% 29.94 1014.0
23 14:56 S 7 10.00 Fair CLR 62.1 53.1 73% 29.94 1014.1
23 13:56 S 10 10.00 Fair CLR 63 54 73% 29.94 1014.0
23 12:56 S 8 10.00 Fair CLR 62.1 54 75% 29.95 1014.2
23 11:56 SW 8 9.00 A Few Clouds FEW035 60.1 54 80% 29.94 1014.0
23 10:56 SW 7 9.00 A Few Clouds FEW027 60.1 54 60.1 46.9 80% 29.94 1014.0
23 09:56 S 9 8.00 Partly Cloudy SCT027 59 55 87% 29.94 1013.9
23 08:56 S 7 9.00 Fair CLR 57.9 54 87% 29.94 1013.8
23 07:56 S 5 6.00 Fog/Mist CLR 55.9 55 97% 29.93 1013.6
23 06:56 Calm 6.00 Fog/Mist OVC011 51.1 51.1 100% 29.93 1013.5
23 05:56 Calm 1.75 Fog/Mist OVC008 48.9 48 97% 29.93 1013.7
23 04:56 SE 3 5.00 Fog/Mist FEW016 51.1 50 53.1 48 96% 29.93 1013.6
23 03:56 Calm 9.00 Mostly Cloudy BKN012 48.9 48.9 100% 29.94 1013.9
23 02:56 Calm 1.25 Fog/Mist BKN009 50 50 100% 29.94 1014.0
23 01:56 Calm 5.00 Fog/Mist CLR 50 50 100% 29.95 1014.2
23 00:56 Calm 6.00 Fog/Mist CLR 52 51.1 97% 29.96 1014.5
22 23:56 NW 5 5.00 Fog/Mist BKN011 53.1 52 96% 29.96 0.0
22 22:56 N 6 4.00 Fog/Mist BKN012 53.1 52 60.1 53.1 96% 29.95 1014.3
22 21:56 N 6 7.00 Fair CLR 54 52 93% 29.95 1014.2
22 20:56 N 8 G 17 7.00 Fair CLR 55 51.1 87% 29.94 1014.0
22 19:56 N 13 G 25 8.00 Fair CLR 57 50 78% 29.94 1013.9
22 18:56 N 16 G 28 8.00 Fair CLR 59 51.1 75% 29.94 1014.0
22 17:56 N 21 G 33 8.00 Fair and Breezy CLR 59 51.1 75% 29.96 1014.5
22 16:56 N 21 G 35 8.00 Fair and Breezy CLR 60.1 52 75% 29.97 1014.8
22 15:56 N 20 G 35 9.00 Fair CLR 61 52 72% 29.98 1015.2
22 14:56 N 17 G 35 9.00 Fair CLR 62.1 52 70% 29.99 1015.5
22 13:56 N 16 G 28 9.00 Fair CLR 63 54 73% 30 1015.8
22 12:56 N 14 G 23 9.00 Fair CLR 63 55.9 78% 30 1015.7
Date Time (pdt) Wind (mph) Vis. (mi.) Weather Sky Cond. Air Dwpt Max. Min. Relative Humidity Wind Chill (°F) Heat Index (°F) altimeter (in) sea level (mb) 1 hr 3 hr 6 hr
6 hour
Temperature (ºF) Pressure Precipitation (in)